[[{"header":{"parameterUnit":"m.s-1","parameterCategory":1,"la1":30.2991,"la2":30.254,"lo1":-89.0895,"lo2":-89.0444,"dy":0.0017,"dx":0.0017,"nx":28,"ny":28,"refTime":"2025-07-24T03:00:00:Z","depth":0,"parameterNumber":2,"parameterNumberName":"U-component_of_WINDS"},"data":[0,0,0,0,0,0,0,0,0,0,0,0,0,0,0,0,0,0,0,0,0,0,0,0,0,0,0,0,0,0,0,0,0,0,0,0,0,0,0,0,0,0,0,0,0,0,0,0,0,0,0,0,0,0,0,0,0,0,-3.3133,-3.3133,0,-3.3174,-3.3174,-3.3175,-3.3179,-3.3179,-3.3178,-3.3178,-3.322,-3.3221,-3.3223,0,0,0,0,0,0,0,0,0,0,0,0,0,-3.3058,-3.3059,-3.3132,-3.3133,-3.3134,-3.3174,-3.3174,-3.3175,-3.3179,-3.3179,-3.3178,-3.3178,-3.3219,-3.3221,-3.3223,0,0,0,0,0,0,0,0,0,0,0,0,0,-3.3094,-3.306,-3.3132,-3.3141,-3.3142,-3.3174,-3.3174,-3.3175,-3.3179,-3.3179,-3.3178,-3.3178,-3.3219,-3.3221,-3.3223,-3.3249,0,0,-3.323,-3.3231,0,0,0,0,0,0,0,0,-3.3092,-3.3097,-3.3139,-3.314,-3.3141,-3.3171,-3.3163,-3.32,-3.318,-3.3165,-3.3178,-3.3177,-3.3204,-3.3207,-3.3216,-3.3251,-3.3253,-3.323,-3.3231,-3.3232,-3.3233,0,0,0,0,0,0,0,-3.3089,-3.3095,-3.3149,-3.3139,-3.3141,-3.3142,-3.3147,-3.317,-3.3187,-3.3166,-3.3167,-3.3172,-3.3204,-3.3214,-3.3217,-3.3254,-3.323,-3.3232,-3.3233,-3.3234,-3.3314,-3.3315,0,0,0,0,0,0,-3.3085,-3.3093,-3.3148,-3.315,-3.3115,-3.3144,-3.3149,-3.3162,-3.3187,-3.3191,-3.3172,-3.3172,-3.3211,-3.3215,-3.3219,-3.3252,-3.3232,-3.3235,-3.3236,-3.3313,-3.3314,-3.3315,0,0,0,0,0,0,-3.3084,-3.309,-3.3146,-3.3122,-3.3129,-3.3146,-3.3161,-3.3163,-3.3173,-3.3192,-3.3195,-3.3179,-3.321,-3.3216,-3.3242,-3.3253,-3.3236,-3.3238,-3.3312,-3.3314,-3.3315,-3.3318,0,0,0,0,0,0,-3.3082,-3.309,-3.3099,-3.3122,-3.313,-3.3168,-3.3161,-3.3164,-3.3177,-3.3177,-3.3199,-3.3202,-3.321,-3.3239,-3.3244,-3.3256,-3.3239,-3.3311,-3.3313,-3.3314,-3.3317,-3.3319,-3.3321,0,0,0,0,0,-3.3079,-3.3098,-3.31,-3.3106,-3.3143,-3.3169,-3.3173,-3.3183,-3.3178,-3.3188,-3.32,-3.3201,-3.3252,-3.3241,-3.3248,-3.326,-3.3311,-3.3313,-3.3314,-3.3316,-3.3318,-3.3321,0,0,0,0,0,0,-3.3076,-3.3101,-3.3103,-3.313,-3.3147,-3.3169,-3.3182,-3.3185,-3.3204,-3.3203,-3.3214,-3.3219,-3.3245,-3.3256,-3.3244,-3.3288,-3.3281,-3.3284,-3.328,-3.3282,-3.3284,-3.328,-3.3241,0,0,0,0,0,-3.3078,-3.3097,-3.3119,-3.314,-3.3149,-3.3164,-3.3176,-3.3182,-3.32,-3.3207,-3.3221,-3.3239,-3.3259,-3.3271,-3.3291,-3.3319,-3.3324,-3.3331,-3.3333,-3.3335,-3.3336,-3.3353,-3.3356,-3.3321,-3.3321,-3.3321,0,0,-3.3083,-3.31,-3.3111,-3.314,-3.3154,-3.3174,-3.317,-3.3191,-3.3205,-3.321,-3.3236,-3.3247,-3.3268,-3.3295,-3.3308,-3.3305,-3.3348,-3.3337,-3.3338,-3.3339,-3.3355,-3.3358,-3.3361,-3.3322,-3.3322,-3.3322,0,0,-3.3103,-3.3117,-3.3137,-3.3152,-3.3173,-3.3184,-3.3189,-3.3211,-3.3219,-3.3245,-3.3249,-3.3268,-3.3301,-3.3316,-3.3328,-3.3355,-3.3357,-3.3362,-3.3371,-3.3387,-3.339,-3.3392,-3.3402,-3.3405,-3.3364,-3.3364,-3.3364,0,-3.3106,-3.3135,-3.3147,-3.3168,-3.3181,-3.3187,-3.3208,-3.3222,-3.3248,-3.3257,-3.3254,-3.3297,-3.3312,-3.3343,-3.335,-3.336,-3.3366,-3.3358,-3.3389,-3.3391,-3.3394,-3.3403,-3.3407,-3.3364,-3.3364,-3.3364,-3.3364,0,-3.3139,-3.3159,-3.3173,-3.3199,-3.3214,-3.3235,-3.325,-3.3263,-3.3269,-3.328,-3.3308,-3.3326,-3.3349,-3.3357,-3.3363,-3.339,-3.3388,-3.3386,-3.3379,-3.3397,-3.3406,-3.341,-3.3365,-3.3365,-3.3365,-3.3364,0,0,-3.3154,-3.3188,-3.3193,-3.3205,-3.3231,-3.3247,-3.3269,-3.3292,-3.3304,-3.3323,-3.3342,-3.3372,-3.3371,-3.3385,-3.3392,-3.3406,-3.3427,-3.3404,-3.3404,-3.3407,-3.3459,-3.3458,-3.3462,-3.343,-3.343,-3.3431,-3.3457,0,-3.3176,-3.3214,-3.3226,-3.3258,-3.3277,-3.3285,-3.3304,-3.3322,-3.3334,-3.3353,-3.3366,-3.3387,-3.3385,-3.3393,-3.3408,-3.3421,-3.3438,-3.342,-3.3446,-3.3447,-3.3439,-3.3467,-3.3466,-3.349,-3.346,-3.3461,-3.3461,0,-3.3205,-3.3225,-3.3259,-3.3284,-3.3292,-3.3309,-3.3332,-3.335,-3.3371,-3.3379,-3.3395,-3.3402,-3.3426,-3.3419,-3.3452,-3.3439,-3.3452,-3.346,-3.3462,-3.3463,-3.3454,-3.3468,-3.3498,-3.3501,-3.3467,-3.3467,-3.3466,0,-3.3212,-3.3248,-3.3273,-3.3284,-3.3313,-3.3325,-3.3337,-3.3358,-3.3372,-3.3393,-3.3402,-3.3425,-3.3438,-3.3456,-3.3469,-3.3463,-3.3501,-3.3495,-3.3508,-3.3508,-3.3514,-3.3513,-3.3544,-3.3524,-3.3524,-3.3524,-3.3524,0,-3.3234,-3.3254,-3.3277,-3.3292,-3.3316,-3.3331,-3.3354,-3.3367,-3.3386,-3.3404,-3.3413,-3.343,-3.3448,-3.3467,-3.3478,-3.3504,-3.351,-3.3517,-3.3519,-3.3515,-3.3514,-3.3522,-3.352,-3.3525,-3.3525,-3.3524,-3.3524,0,-3.3245,-3.3261,-3.3289,-3.3315,-3.3322,-3.3339,-3.3361,-3.3377,-3.339,-3.3413,-3.3419,-3.344,-3.3464,-3.348,-3.351,-3.3518,-3.3545,-3.3548,-3.3538,-3.3539,-3.3551,-3.3549,-3.3587,-3.3592,-3.3569,-3.3569,-3.357,0,-3.3257,-3.3273,-3.3301,-3.3315,-3.3327,-3.3348,-3.3363,-3.3379,-3.3394,-3.342,-3.3433,-3.3458,-3.3478,-3.3516,-3.3534,-3.3557,-3.356,-3.3572,-3.3563,-3.3559,-3.3559,-3.3558,-3.3559,-3.3572,-3.3573,-3.3573,-3.3573,0,-3.3277,-3.3285,-3.3305,-3.3329,-3.3346,-3.3366,-3.3385,-3.3396,-3.3415,-3.3432,-3.3456,-3.3472,-3.3504,-3.3529,-3.3555,-3.3568,-3.3574,-3.3576,-3.358,-3.3575,-3.3568,-3.3572,-3.354,-3.3574,-3.3574,-3.3574,-3.3574,-3.3574,-3.3288,-3.3303,-3.3326,-3.3349,-3.3365,-3.3384,-3.34,-3.3416,-3.3437,-3.3464,-3.3472,-3.3498,-3.3521,-3.3556,-3.3571,-3.3591,-3.359,-3.3596,-3.3597,-3.3598,-3.3598,-3.3567,-3.3596,-3.3596,-3.3596,-3.3596,-3.3596,0,-3.3308,-3.3323,-3.3344,-3.3372,-3.339,-3.3395,-3.3418,-3.3433,-3.3455,-3.3476,-3.3496,-3.3525,-3.355,-3.3571,-3.3596,-3.3609,-3.3612,-3.3615,-3.3613,-3.3616,-3.3598,-3.3591,-3.3612,-3.3612,-3.3612,-3.3612,-3.3612,-3.3612,-3.332,-3.3345,-3.3356,-3.339,-3.3406,-3.3431,-3.3444,-3.3461,-3.3478,-3.351,-3.353,-3.3544,-3.3565,-3.3592,-3.3615,-3.3621,-3.3629,-3.3631,-3.3637,-3.3619,-3.3618,-3.3616,-3.361,-3.3633,-3.3633,-3.3654,-3.3654,-3.3654]},{"header":{"parameterUnit":"m.s-1","parameterCategory":1,"la1":30.2991,"la2":30.254,"lo1":-89.0895,"lo2":-89.0444,"dy":0.0017,"dx":0.0017,"nx":28,"ny":28,"refTime":"2025-07-24T03:00:00:Z","depth":0,"parameterNumber":3,"parameterNumberName":"V-component_of_WINDS"},"data":[0,0,0,0,0,0,0,0,0,0,0,0,0,0,0,0,0,0,0,0,0,0,0,0,0,0,0,0,0,0,0,0,0,0,0,0,0,0,0,0,0,0,0,0,0,0,0,0,0,0,0,0,0,0,0,0,0,0,6.3739,6.3739,0,6.3704,6.3704,6.3704,6.3624,6.3622,6.3621,6.3619,6.3583,6.3584,6.3584,0,0,0,0,0,0,0,0,0,0,0,0,0,6.3737,6.3738,6.3739,6.3739,6.3738,6.3705,6.3704,6.3704,6.3624,6.3622,6.362,6.3618,6.3583,6.3584,6.3584,0,0,0,0,0,0,0,0,0,0,0,0,0,6.3724,6.3738,6.3739,6.3695,6.369,6.3705,6.3704,6.3703,6.3625,6.3622,6.362,6.3617,6.3583,6.3583,6.3584,6.3639,0,0,6.3587,6.3587,0,0,0,0,0,0,0,0,6.3725,6.3724,6.3701,6.3698,6.3693,6.3666,6.369,6.3682,6.3625,6.365,6.3619,6.3616,6.3613,6.3611,6.361,6.3637,6.3636,6.3587,6.3588,6.3588,6.3588,0,0,0,0,0,0,0,6.3726,6.3725,6.3725,6.3701,6.3696,6.3677,6.3672,6.3688,6.3645,6.3647,6.3641,6.3638,6.361,6.3609,6.3608,6.3635,6.3587,6.3588,6.3588,6.3589,6.3707,6.371,0,0,0,0,0,0,6.3733,6.3726,6.3726,6.3724,6.3703,6.3679,6.3673,6.3677,6.3645,6.3638,6.3641,6.3635,6.3609,6.3607,6.3607,6.3669,6.3588,6.3589,6.3589,6.3705,6.3708,6.3711,0,0,0,0,0,0,6.3733,6.3734,6.3728,6.3724,6.3721,6.3681,6.3686,6.3678,6.3677,6.364,6.3632,6.3648,6.3607,6.3606,6.3632,6.3667,6.3589,6.359,6.3702,6.3706,6.3709,6.3794,0,0,0,0,0,0,6.3734,6.3734,6.3754,6.3725,6.3722,6.3753,6.3688,6.3679,6.3679,6.3671,6.3644,6.3638,6.3605,6.3631,6.3633,6.3666,6.3591,6.3698,6.3704,6.3708,6.3788,6.38,6.3811,0,0,0,0,0,6.3734,6.3779,6.3756,6.3756,6.3746,6.3755,6.3754,6.3715,6.3682,6.3702,6.3678,6.3639,6.3663,6.3634,6.3636,6.367,6.3696,6.3702,6.3708,6.3783,6.3798,6.3811,0,0,0,0,0,0,6.3812,6.3774,6.3748,6.3785,6.3774,6.3742,6.3766,6.3733,6.3731,6.3723,6.3676,6.3671,6.3704,6.369,6.3658,6.3722,6.3673,6.368,6.373,6.3744,6.3755,6.3757,6.3591,0,0,0,0,0,6.3834,6.3845,6.3811,6.3847,6.3843,6.3806,6.3808,6.378,6.3767,6.3762,6.374,6.3729,6.3734,6.3738,6.3741,6.3786,6.378,6.3811,6.3822,6.3832,6.3838,6.3862,6.3875,6.373,6.373,6.373,0,0,6.3879,6.386,6.3869,6.3862,6.3851,6.3863,6.3802,6.3818,6.3827,6.3764,6.3787,6.3772,6.3756,6.3793,6.3808,6.3782,6.3877,6.384,6.3848,6.3848,6.3869,6.3883,6.3895,6.3734,6.3734,6.3733,0,0,6.3967,6.3953,6.3982,6.3972,6.3956,6.3931,6.3939,6.3912,6.39,6.3923,6.3876,6.3887,6.3897,6.3888,6.3885,6.3973,6.3936,6.3975,6.4035,6.4059,6.407,6.408,6.4111,6.4123,6.3981,6.3982,6.3982,0,6.4024,6.4041,6.4001,6.402,6.4019,6.3964,6.3993,6.3986,6.3971,6.3972,6.3944,6.3957,6.3942,6.3976,6.3998,6.3997,6.4004,6.3977,6.4072,6.4081,6.409,6.4119,6.4131,6.3986,6.3986,6.3985,6.3985,0,6.4113,6.4126,6.4151,6.4139,6.4141,6.4165,6.4129,6.4136,6.4109,6.4088,6.4113,6.4094,6.4093,6.4099,6.4072,6.413,6.4115,6.4081,6.403,6.4109,6.4136,6.4147,6.3993,6.3992,6.399,6.3989,0,0,6.4246,6.4214,6.4224,6.4219,6.4198,6.4207,6.423,6.4229,6.4236,6.4229,6.4247,6.4258,6.4227,6.4223,6.4195,6.4216,6.4288,6.4179,6.4178,6.42,6.4351,6.4377,6.439,6.4265,6.4267,6.4268,6.4353,0,6.4328,6.4364,6.433,6.4373,6.4385,6.4335,6.4355,6.4345,6.4326,6.4334,6.4314,6.4322,6.428,6.4278,6.4297,6.4275,6.4318,6.4269,6.428,6.4281,6.4285,6.4404,6.4431,6.4511,6.4363,6.4365,6.4366,0,6.4428,6.4426,6.4471,6.4449,6.4453,6.4471,6.4469,6.4477,6.4466,6.4451,6.4449,6.4415,6.4436,6.4389,6.4418,6.4386,6.4389,6.438,6.4382,6.438,6.4327,6.4405,6.4536,6.4548,6.4382,6.4381,6.438,0,6.4521,6.453,6.4558,6.4555,6.4531,6.4545,6.4535,6.4521,6.4524,6.4522,6.4524,6.4525,6.4525,6.4527,6.4495,6.4463,6.4528,6.4478,6.4516,6.4517,6.453,6.453,6.4663,6.4535,6.4535,6.4534,6.4534,0,6.4615,6.4644,6.4599,6.4617,6.4648,6.461,6.4642,6.4628,6.4616,6.463,6.4587,6.4601,6.4559,6.4569,6.4544,6.4572,6.4573,6.4562,6.4554,6.4565,6.4566,6.4565,6.4558,6.4538,6.4537,6.4536,6.4536,0,6.4723,6.4694,6.4721,6.4697,6.4692,6.4716,6.4695,6.4711,6.4691,6.4709,6.4711,6.4679,6.4689,6.4658,6.4662,6.4646,6.4687,6.4671,6.4691,6.4686,6.4726,6.4723,6.4862,6.4878,6.4741,6.4742,6.4744,0,6.4784,6.4805,6.4784,6.4791,6.4784,6.4795,6.4798,6.4762,6.4766,6.4756,6.4773,6.478,6.4782,6.48,6.4778,6.4781,6.4765,6.4814,6.4765,6.4775,6.4765,6.4764,6.4766,6.4823,6.4825,6.4826,6.4827,0,6.4896,6.4882,6.4887,6.4889,6.4894,6.4894,6.489,6.4898,6.4859,6.4867,6.4877,6.4879,6.4885,6.4892,6.4891,6.4882,6.4848,6.4843,6.4852,6.4862,6.4873,6.4867,6.4718,6.484,6.4838,6.4837,6.4837,6.4836,6.4982,6.4999,6.4988,6.4996,6.499,6.4989,6.5002,6.4985,6.4992,6.4994,6.4973,6.4987,6.4977,6.4973,6.4967,6.4978,6.4956,6.4969,6.4972,6.4976,6.4982,6.4873,6.4978,6.4978,6.4977,6.4977,6.4977,0,6.5092,6.5082,6.5091,6.5088,6.5095,6.5065,6.506,6.5068,6.5081,6.5075,6.5079,6.5091,6.5099,6.5078,6.5082,6.5096,6.5081,6.5098,6.5096,6.5094,6.5002,6.4994,6.511,6.511,6.511,6.511,6.511,6.511,6.5149,6.5177,6.5162,6.5187,6.5177,6.5192,6.5192,6.5191,6.5185,6.5201,6.5207,6.5194,6.5182,6.5186,6.5192,6.5185,6.5189,6.5211,6.52,6.5114,6.5101,6.5088,6.508,6.5213,6.5213,6.5291,6.5292,6.5292]}]]